QPF
0.00 0.00 0.00 0.00 0.00 0.00 0.00 0.00 0.00 0.00 0.00 0.00 0.00 0.00 0.00 0.00 0.00 0.00 0.00 0.01 0.01 0.00 0.00 0.01 0.00 0.00 0.00 0.00 0.00 0.00 0.00 0.00 0.00 0.00 0.00 0.00 0.00 0.00 0.00 0.00 0.00 0.00 0.00
0.00 0.00 0.00 0.00 0.00 0.00 0.00 0.00 0.00 0.00 0.00 0.00 0.00 0.00 0.00 0.00 0.00 0.00 0.00 0.00 0.01 0.00 0.00 0.00 0.00 0.00 0.00 0.00 0.00 0.00 0.00 0.00 0.00 0.00 0.00 0.00 0.00 0.00 0.00 0.00 0.00 0.00 0.00
0.00 0.00 0.00 0.00 0.00 0.00 0.00 0.00 0.00 0.00 0.00 0.00 0.00 0.00 0.00 0.00 0.00 0.00 0.00 0.00 0.00 0.00 0.00 0.00 0.00 0.00 0.00 0.00 0.00 0.00 0.00 0.00 0.00 0.00 0.00 0.00 0.00 0.00 0.00 0.00 0.00 0.00 0.00
0.00 0.00 0.00 0.00 0.00 0.00 0.00 0.00 0.00 0.00 0.00 0.00 0.00 0.00 0.00 0.00 0.00 0.00 0.00 0.00 0.00 0.00 0.00 0.00 0.00 0.00 0.00 0.00 0.00 0.00 0.00 0.00 0.00 0.00 0.00 0.00 0.00 0.00 0.00 0.00 0.00 0.00 0.00
0.00 0.00 0.00 0.00 0.00 0.00 0.00 0.00 0.00 0.00 0.00 0.00 0.00 0.00 0.00 0.00 0.00 0.00 0.00 0.00 0.00 0.00 0.00 0.00 0.00 0.00 0.00 0.00 0.00 0.00 0.00 0.00 0.00 0.00 0.00 0.00 0.00 0.00 0.00 0.00 0.00 0.00 0.00
0.00 0.00 0.00 0.00 0.00 0.00 0.00 0.00 0.00 0.00 0.00 0.00 0.00 0.00 0.00 0.00 0.00 0.00 0.00 0.00 0.00 0.00 0.00 0.00 0.00 0.00 0.00 0.00 0.00 0.00 0.00 0.00 0.00 0.00 0.00 0.00 0.00 0.00 0.00 0.00 0.00 0.00 0.00
0.00 0.00 0.00 0.00 0.00 0.00 0.00 0.00 0.00 0.00 0.00 0.00 0.00 0.00 0.00 0.00 0.00 0.00 0.00 0.00 0.00 0.00 0.00 0.00 0.00 0.00 0.00 0.00 0.00 0.00 0.00 0.00 0.00 0.00 0.00 0.00 0.00 0.00 0.00 0.00 0.00 0.00 0.00
0.00 0.00 0.00 0.00 0.00 0.00 0.00 0.00 0.00 0.00 0.00 0.00 0.00 0.00 0.00 0.00 0.00 0.00 0.00 0.00 0.00 0.00 0.00 0.00 0.00 0.00 0.00 0.00 0.00 0.00 0.00 0.00 0.00 0.00 0.00 0.00 0.00 0.00 0.00 0.00 0.00 0.01 0.00
0.00 0.00 0.00 0.00 0.00 0.00 0.00 0.00 0.00 0.00 0.00 0.00 0.00 0.00 0.00 0.00 0.00 0.00 0.00 0.00 0.00 0.00 0.00 0.00 0.00 0.00 0.00 0.00 0.00 0.00 0.00 0.00 0.00 0.00 0.00 0.00 0.00 0.00 0.00 0.00 0.00 0.00 0.00
0.00 0.00 0.00 0.00 0.00 0.00 0.00 0.00 0.00 0.00 0.00 0.00 0.00 0.00 0.00 0.00 0.00 0.00 0.00 0.00 0.00 0.00 0.00 0.00 0.00 0.00 0.00 0.00 0.00 0.00 0.00 0.00 0.00 0.00 0.00 0.00 0.00 0.00 0.00 0.00 0.00 0.00 0.01
0.00 0.00 0.00 0.00 0.00 0.00 0.00 0.00 0.00 0.00 0.00 0.00 0.00 0.00 0.00 0.00 0.00 0.00 0.00 0.00 0.00 0.00 0.00 0.00 0.00 0.00 0.00 0.00 0.00 0.00 0.00 0.00 0.00 0.00 0.00 0.00 0.00 0.00 0.00 0.01 0.00 0.01 0.03
0.00 0.00 0.00 0.00 0.00 0.00 0.00 0.00 0.00 0.00 0.00 0.00 0.00 0.00 0.00 0.00 0.00 0.00 0.00 0.00 0.00 0.00 0.00 0.00 0.00 0.00 0.00 0.00 0.00 0.00 0.00 0.00 0.00 0.00 0.00 0.00 0.00 0.00 0.00 0.01 0.02 0.04 0.05
0.00 0.00 0.00 0.00 0.00 0.00 0.00 0.00 0.00 0.00 0.00 0.00 0.00 0.00 0.00 0.00 0.00 0.00 0.00 0.00 0.00 0.00 0.00 0.00 0.00 0.00 0.00 0.00 0.00 0.00 0.00 0.00 0.00 0.00 0.00 0.00 0.00 0.00 0.00 0.00 0.02 0.02 0.01
0.00 0.00 0.00 0.00 0.00 0.00 0.00 0.00 0.00 0.00 0.00 0.00 0.00 0.00 0.00 0.00 0.00 0.00 0.00 0.00 0.00 0.00 0.00 0.00 0.00 0.00 0.00 0.00 0.00 0.00 0.00 0.00 0.00 0.00 0.00 0.00 0.00 0.00 0.01 0.02 0.01 0.00 0.00
0.00 0.00 0.00 0.00 0.00 0.00 0.00 0.00 0.00 0.00 0.00 0.00 0.00 0.00 0.00 0.00 0.00 0.00 0.00 0.00 0.00 0.00 0.00 0.00 0.00 0.00 0.00 0.00 0.00 0.00 0.00 0.00 0.00 0.00 0.00 0.00 0.00 0.01 0.00 0.01 0.01 0.01 0.01
0.01 0.00 0.00 0.00 0.00 0.00 0.00 0.00 0.00 0.00 0.00 0.00 0.00 0.00 0.00 0.00 0.00 0.00 0.00 0.00 0.00 0.00 0.00 0.00 0.00 0.00 0.00 0.00 0.00 0.00 0.00 0.00 0.00 0.00 0.00 0.00 0.00 0.00 0.00 0.00 0.00 0.00 0.00
0.00 0.01 0.00 0.00 0.00 0.00 0.00 0.00 0.00 0.00 0.00 0.00 0.00 0.00 0.00 0.02 0.00 0.00 0.02 0.00 0.00 0.00 0.00 0.00 0.00 0.00 0.00 0.00 0.00 0.00 0.00 0.00 0.00 0.00 0.00 0.00 0.00 0.00 0.00 0.00 0.00 0.00 0.00
0.00 0.00 0.00 0.01 0.01 0.00 0.00 0.00 0.00 0.00 0.00 0.00 0.00 0.02 0.04 0.01 0.02 0.02 0.01 0.00 0.00 0.00 0.00 0.00 0.00 0.00 0.00 0.00 0.00 0.00 0.00 0.00 0.01 0.01 0.00 0.00 0.00 0.00 0.00 0.00 0.00 0.00 0.00
0.00 0.01 0.00 0.01 0.06 0.10 0.10 0.13 0.09 0.08 0.01 0.01 0.00 0.02 0.01 0.02 0.06 0.08 0.06 0.01 0.00 0.00 0.00 0.00 0.00 0.00 0.00 0.00 0.00 0.01 0.01 0.00 0.00 0.02 0.02 0.01 0.00 0.00 0.00 0.00 0.00 0.00 0.00
0.06 0.12 0.18 0.17 0.19 0.27 0.23 0.25 0.20 0.21 0.17 0.07 0.03 0.01 0.01 0.00 0.01 0.01 0.03 0.03 0.00 0.00 0.00 0.00 0.00 0.00 0.00 0.00 0.01 0.02 0.02 0.01 0.00 0.00 0.00 0.00 0.00 0.00 0.00 0.00 0.00 0.01 0.01
0.13 0.16 0.23 0.31 0.32 0.35 0.32 0.13 0.14 0.16 0.09 0.03 0.01 0.00 0.00 0.00 0.00 0.01 0.02 0.02 0.02 0.01 0.00 0.00 0.00 0.03 0.03 0.07 0.06 0.06 0.05 0.03 0.03 0.01 0.01 0.01 0.01 0.00 0.01 0.01 0.00 0.00 0.00
0.08 0.12 0.10 0.12 0.13 0.11 0.14 0.13 0.06 0.03 0.01 0.01 0.02 0.02 0.05 0.14 0.20 0.10 0.07 0.10 0.16 0.17 0.07 0.03 0.03 0.07 0.06 0.05 0.04 0.04 0.02 0.00 0.01 0.01 0.01 0.00 0.00 0.00 0.00 0.00 0.00 0.00 0.00
0.02 0.04 0.06 0.07 0.06 0.07 0.09 0.07 0.03 0.01 0.00 0.01 0.01 0.03 0.08 0.07 0.04 0.06 0.08 0.11 0.14 0.16 0.11 0.03 0.00 0.00 0.00 0.00 0.00 0.00 0.00 0.00 0.00 0.00 0.00 0.00 0.00 0.00 0.00 0.00 0.00 0.00 0.00
0.00 0.00 0.00 0.00 0.00 0.00 0.00 0.01 0.01 0.02 0.01 0.00 0.01 0.03 0.02 0.02 0.02 0.04 0.04 0.05 0.07 0.07 0.06 0.04 0.01 0.00 0.00 0.00 0.00 0.00 0.00 0.00 0.00 0.00 0.00 0.00 0.00 0.00 0.00 0.00 0.00 0.00 0.00
0.00 0.00 0.00 0.00 0.00 0.00 0.00 0.00 0.00 0.00 0.01 0.01 0.03 0.05 0.04 0.02 0.01 0.02 0.02 0.01 0.01 0.01 0.01 0.00 0.00 0.00 0.00 0.00 0.00 0.00 0.00 0.00 0.00 0.00 0.00 0.00 0.00 0.00 0.00 0.00 0.00 0.00 0.00
0.00 0.00 0.00 0.00 0.00 0.00 0.00 0.00 0.00 0.00 0.00 0.00 0.00 0.01 0.02 0.02 0.01 0.00 0.00 0.00 0.00 0.00 0.00 0.00 0.00 0.00 0.00 0.00 0.00 0.00 0.00 0.00 0.00 0.00 0.00 0.00 0.00 0.00 0.00 0.00 0.00 0.00 0.00
MSLP
1009.91 1010.90 1011.79 1012.57 1013.09 1013.59 1013.85 1014.36 1014.47 1014.81 1014.96 1015.26 1015.70 1016.01 1016.53 1016.96 1017.28 1017.68 1017.98 1018.23 1018.63 1018.71 1018.74 1018.81 1018.92 1018.86 1018.81 1018.77 1018.78 1018.74 1018.86 1019.02 1019.17 1018.81 1018.37 1018.02 1017.86 1017.95 1017.72 1017.47 1017.31 1017.31 1017.28
1008.68 1009.83 1010.71 1011.55 1012.43 1012.89 1013.28 1013.54 1014.06 1014.37 1014.72 1014.96 1015.38 1015.81 1016.20 1016.60 1016.98 1017.30 1017.63 1017.74 1018.00 1018.23 1018.34 1018.44 1018.54 1018.64 1018.69 1018.63 1018.62 1018.70 1018.72 1018.73 1018.96 1018.88 1018.57 1018.28 1017.93 1017.66 1017.16 1017.15 1016.76 1016.47 1016.32
1007.73 1008.80 1009.81 1010.65 1011.32 1011.93 1012.53 1012.79 1013.34 1013.91 1014.23 1014.70 1015.02 1015.45 1015.80 1016.19 1016.54 1016.89 1017.18 1017.45 1017.59 1017.70 1017.84 1017.90 1018.02 1018.18 1018.48 1018.59 1018.54 1018.52 1018.37 1018.32 1018.48 1018.60 1018.48 1018.01 1017.48 1017.06 1016.80 1016.45 1016.26 1015.99 1015.77
1006.40 1007.63 1008.62 1009.39 1010.05 1010.87 1011.60 1012.38 1012.57 1013.17 1013.70 1014.04 1014.53 1014.94 1015.33 1015.67 1016.00 1016.34 1016.61 1016.92 1017.16 1017.28 1017.34 1017.50 1017.59 1017.70 1017.85 1018.06 1018.24 1018.26 1018.20 1018.18 1018.15 1018.18 1018.07 1017.72 1017.21 1016.44 1016.22 1016.40 1016.30 1015.82 1015.44
1005.06 1006.33 1007.19 1008.31 1009.29 1010.13 1010.83 1011.46 1012.08 1012.38 1012.88 1013.42 1013.88 1014.28 1014.72 1015.06 1015.35 1015.73 1016.06 1016.31 1016.62 1016.79 1016.82 1016.92 1017.02 1017.12 1017.24 1017.39 1017.65 1017.82 1017.93 1017.92 1017.86 1017.73 1017.59 1017.25 1016.91 1016.51 1016.41 1016.23 1016.06 1015.74 1015.30
1003.88 1004.88 1006.34 1007.54 1008.50 1009.23 1010.01 1010.58 1011.23 1011.74 1012.17 1012.75 1013.09 1013.48 1013.86 1014.16 1014.43 1014.80 1015.33 1015.67 1015.83 1016.18 1016.36 1016.49 1016.49 1016.49 1016.69 1016.80 1016.96 1017.16 1017.35 1017.61 1017.62 1017.51 1017.29 1017.24 1016.98 1016.79 1016.47 1016.36 1016.18 1016.00 1015.41
1002.76 1004.09 1005.28 1006.32 1007.37 1008.30 1009.14 1009.87 1010.29 1010.88 1011.40 1011.82 1012.38 1012.71 1013.01 1013.35 1013.64 1014.01 1014.47 1014.94 1015.18 1015.32 1015.55 1015.83 1016.00 1015.99 1016.07 1016.18 1016.26 1016.35 1016.48 1016.58 1016.71 1016.88 1016.94 1016.72 1016.48 1016.42 1016.32 1016.12 1015.94 1015.66 1015.29
1002.02 1003.04 1004.18 1005.19 1006.10 1007.26 1008.22 1008.85 1009.48 1010.06 1010.54 1010.94 1011.42 1011.85 1012.25 1012.50 1012.88 1013.34 1013.77 1014.28 1014.42 1014.54 1014.71 1015.02 1015.26 1015.40 1015.41 1015.47 1015.61 1015.71 1015.76 1015.60 1015.59 1015.80 1015.94 1015.70 1015.55 1015.50 1015.48 1015.37 1015.31 1015.08 1014.67
1001.18 1001.99 1002.96 1004.04 1005.14 1006.12 1007.07 1007.82 1008.58 1009.27 1009.80 1010.12 1010.56 1011.00 1011.41 1011.77 1012.12 1012.58 1013.30 1013.78 1013.79 1013.85 1013.98 1014.22 1014.44 1014.64 1014.75 1014.99 1015.25 1015.14 1014.98 1014.73 1014.34 1014.80 1014.73 1014.57 1014.59 1014.55 1014.50 1014.74 1014.81 1014.70 1014.18
1000.20 1001.22 1002.32 1003.40 1004.38 1005.20 1005.99 1006.80 1007.62 1008.34 1008.73 1009.25 1009.61 1009.98 1010.48 1010.92 1011.36 1011.78 1012.40 1012.84 1013.05 1013.13 1013.17 1013.35 1013.58 1013.82 1014.08 1014.30 1014.56 1014.58 1014.39 1014.06 1013.98 1013.75 1013.82 1013.83 1013.85 1013.76 1013.96 1014.27 1014.06 1014.05 1013.88
999.86 1000.76 1001.73 1002.46 1003.30 1004.20 1005.29 1006.16 1006.84 1007.41 1007.93 1008.41 1008.68 1009.04 1009.50 1010.01 1010.42 1010.92 1011.48 1011.95 1011.99 1012.16 1012.25 1012.20 1012.35 1012.68 1013.05 1013.26 1013.41 1013.55 1013.32 1013.37 1013.37 1013.34 1013.24 1013.16 1012.95 1012.73 1012.92 1012.88 1012.87 1013.08 1013.25
999.28 1000.09 1000.71 1001.70 1002.59 1003.45 1004.42 1005.21 1005.93 1006.65 1007.16 1007.54 1007.90 1008.08 1008.34 1008.91 1009.42 1009.97 1010.42 1010.84 1011.09 1011.35 1011.20 1011.12 1011.30 1011.32 1011.58 1011.80 1012.18 1012.46 1012.57 1012.80 1013.12 1013.09 1012.99 1012.74 1012.44 1012.13 1011.95 1011.94 1011.70 1011.96 1012.20
998.75 999.50 1000.15 1000.98 1001.90 1002.63 1003.54 1004.34 1005.04 1005.66 1006.14 1006.66 1006.90 1007.24 1007.22 1007.56 1008.20 1008.80 1009.32 1009.91 1010.24 1010.58 1010.55 1010.70 1010.88 1011.18 1011.38 1011.41 1011.56 1011.90 1012.18 1012.67 1012.69 1012.57 1012.26 1011.88 1011.63 1011.45 1011.44 1011.44 1011.15 1011.34 1011.65
998.40 998.97 999.69 1000.44 1001.39 1002.17 1002.76 1003.46 1004.01 1004.49 1005.11 1005.39 1005.79 1006.06 1006.56 1006.79 1006.82 1007.34 1008.55 1009.27 1009.32 1009.75 1009.84 1009.96 1010.15 1010.52 1010.85 1011.04 1011.06 1011.32 1011.62 1011.52 1011.58 1011.47 1011.27 1011.08 1011.06 1010.99 1010.97 1010.89 1011.15 1011.42 1011.90
998.29 998.88 999.42 1000.01 1000.86 1001.54 1002.05 1002.40 1002.86 1003.22 1003.65 1004.25 1004.38 1005.03 1005.48 1005.86 1005.78 1005.88 1006.48 1007.46 1008.00 1008.36 1008.90 1009.44 1009.70 1009.92 1010.07 1010.14 1010.08 1010.09 1010.48 1010.63 1010.72 1010.66 1010.57 1010.50 1010.51 1010.54 1010.59 1010.55 1010.93 1011.44 1011.62
999.25 999.08 999.32 999.76 1000.28 1000.86 1001.57 1002.48 1002.78 1002.62 1003.06 1003.25 1003.76 1003.96 1005.44 1005.15 1005.23 1005.30 1005.41 1005.81 1006.22 1007.18 1008.43 1008.56 1008.63 1008.73 1008.75 1008.82 1008.98 1009.10 1009.27 1009.69 1009.83 1009.80 1009.90 1009.98 1010.07 1010.26 1010.52 1010.72 1010.99 1011.29 1011.37
1000.96 1000.73 999.69 999.83 999.86 1000.19 1000.91 1001.38 1002.36 1003.55 1003.76 1003.70 1003.42 1003.87 1004.35 1005.47 1005.54 1005.69 1005.59 1005.68 1006.09 1007.01 1007.24 1007.43 1007.42 1007.39 1007.39 1007.57 1007.67 1008.05 1008.66 1009.14 1009.54 1009.48 1009.47 1009.61 1009.79 1010.00 1010.33 1010.55 1010.76 1010.89 1010.86
1002.07 1001.78 1001.32 1000.74 999.64 999.68 1000.00 1000.62 1001.19 1002.18 1003.06 1003.61 1004.05 1004.34 1004.58 1004.75 1004.95 1005.49 1005.94 1005.94 1006.70 1006.63 1006.27 1006.07 1006.23 1006.31 1006.44 1006.64 1007.07 1007.36 1007.72 1008.06 1008.47 1008.68 1008.90 1009.14 1009.42 1009.71 1009.97 1010.19 1010.30 1010.32 1010.23
1003.04 1002.71 1002.36 1001.68 1000.88 999.68 999.08 999.87 1000.13 1000.82 1001.79 1002.34 1003.13 1004.86 1005.31 1005.55 1005.96 1006.20 1006.04 1005.34 1005.36 1005.23 1005.30 1005.30 1005.34 1005.46 1005.52 1005.74 1006.05 1006.49 1006.91 1007.34 1007.47 1007.90 1008.31 1008.73 1009.02 1009.15 1009.42 1009.63 1009.72 1009.72 1009.72
1003.73 1003.20 1002.92 1002.34 1001.42 1001.02 1000.92 1000.12 1000.54 1001.24 1002.01 1002.02 1002.91 1003.37 1004.64 1005.34 1005.77 1005.80 1005.90 1005.72 1005.36 1005.10 1004.74 1004.20 1004.11 1004.51 1004.40 1004.96 1005.29 1005.77 1006.40 1006.79 1007.10 1007.40 1007.74 1008.27 1008.77 1008.82 1008.88 1008.78 1008.74 1008.75 1008.80
1004.25 1003.43 1003.06 1002.86 1002.32 1002.18 1002.03 1001.72 1001.84 1002.42 1002.26 1002.78 1002.52 1002.99 1003.74 1004.57 1005.02 1005.08 1005.10 1005.41 1004.72 1004.44 1005.04 1004.40 1003.78 1004.08 1004.52 1004.05 1004.83 1005.61 1006.20 1006.63 1006.72 1006.96 1007.24 1007.57 1008.02 1008.03 1008.07 1007.99 1007.93 1007.91 1007.79
1004.73 1004.04 1003.34 1003.74 1003.95 1003.71 1003.52 1003.41 1003.24 1003.56 1003.14 1004.04 1003.82 1003.69 1004.58 1005.28 1005.75 1006.88 1006.34 1005.63 1006.21 1005.42 1004.85 1006.08 1004.50 1006.28 1006.05 1006.08 1005.72 1005.76 1006.07 1006.69 1006.68 1006.80 1006.92 1007.02 1007.50 1007.45 1007.48 1007.46 1007.32 1007.33 1007.31
1005.57 1005.33 1004.86 1004.70 1005.01 1005.11 1005.03 1004.88 1005.28 1005.32 1006.05 1004.86 1007.06 1006.19 1006.57 1006.94 1007.45 1008.25 1008.36 1007.82 1007.22 1008.70 1008.58 1006.44 1007.62 1008.41 1007.65 1008.35 1008.37 1008.50 1008.70 1009.22 1009.22 1008.64 1007.95 1007.05 1007.02 1007.05 1006.78 1006.68 1006.80 1006.90 1006.96
1007.57 1007.47 1007.42 1007.20 1007.16 1006.62 1006.90 1007.24 1007.54 1007.81 1008.22 1008.81 1008.94 1009.30 1009.28 1009.86 1008.36 1009.27 1011.01 1010.25 1009.41 1010.46 1010.86 1010.59 1010.07 1009.80 1010.02 1010.38 1010.53 1010.49 1010.38 1010.48 1010.13 1009.47 1008.88 1008.21 1007.31 1006.78 1006.56 1006.56 1006.65 1006.64 1006.91
1010.05 1009.72 1009.57 1009.82 1009.20 1009.46 1009.58 1009.71 1008.02 1010.98 1011.42 1011.82 1012.08 1011.90 1010.93 1011.25 1010.57 1012.72 1012.12 1011.75 1011.45 1011.43 1011.80 1011.93 1011.46 1011.76 1011.50 1011.91 1012.25 1011.98 1011.56 1010.82 1010.38 1009.98 1009.10 1008.49 1008.12 1007.53 1007.01 1007.04 1006.94 1007.03 1007.03
1011.01 1010.74 1010.78 1010.50 1010.27 1011.34 1012.05 1012.38 1012.78 1013.29 1013.14 1013.39 1013.19 1012.86 1012.14 1012.58 1012.93 1013.45 1012.64 1012.22 1012.36 1012.37 1012.78 1013.32 1013.21 1012.98 1013.35 1013.90 1014.05 1013.44 1012.79 1011.90 1010.96 1010.33 1009.56 1008.94 1008.65 1008.66 1008.35 1007.99 1007.62 1007.33 1007.20
Thickness
5815 5812 5810 5809 5810 5811 5813 5812 5815 5816 5818 5817 5815 5814 5811 5808 5807 5805 5803 5803 5799 5799 5800 5800 5800 5802 5803 5805 5806 5807 5805 5803 5793 5802 5812 5817 5817 5816 5817 5818 5819 5818 5815
5820 5815 5813 5812 5810 5811 5814 5817 5817 5816 5817 5817 5816 5814 5813 5811 5810 5807 5805 5806 5804 5801 5802 5802 5802 5805 5804 5807 5808 5808 5808 5810 5803 5799 5809 5813 5816 5820 5822 5823 5824 5823 5822
5823 5819 5815 5814 5814 5815 5816 5819 5819 5817 5818 5816 5816 5814 5813 5812 5811 5810 5808 5807 5807 5806 5806 5806 5806 5807 5805 5806 5809 5810 5813 5814 5812 5807 5807 5817 5822 5826 5825 5828 5828 5827 5825
5830 5823 5819 5820 5822 5820 5819 5817 5821 5821 5818 5819 5817 5815 5815 5814 5814 5813 5811 5809 5808 5809 5809 5809 5810 5810 5810 5810 5810 5811 5814 5814 5815 5813 5812 5815 5822 5830 5830 5822 5821 5827 5825
5835 5829 5827 5824 5821 5820 5819 5819 5820 5822 5821 5820 5818 5818 5817 5817 5817 5814 5813 5811 5809 5809 5811 5812 5813 5815 5816 5817 5815 5814 5814 5814 5815 5815 5815 5817 5819 5821 5819 5824 5820 5822 5824
5839 5835 5828 5823 5820 5820 5820 5820 5820 5821 5821 5820 5820 5820 5819 5822 5822 5818 5816 5813 5813 5811 5809 5811 5815 5816 5818 5819 5819 5819 5819 5815 5813 5813 5815 5814 5816 5818 5823 5820 5819 5814 5811
5845 5837 5832 5828 5823 5822 5820 5818 5820 5821 5822 5822 5821 5822 5822 5824 5824 5822 5819 5817 5815 5815 5814 5813 5814 5819 5820 5822 5822 5823 5823 5822 5821 5820 5815 5817 5818 5820 5821 5819 5818 5817 5815
5845 5841 5836 5832 5829 5825 5822 5821 5821 5822 5822 5823 5823 5824 5823 5826 5826 5824 5821 5821 5819 5819 5819 5818 5818 5819 5822 5824 5825 5825 5826 5828 5828 5826 5825 5828 5829 5829 5827 5826 5823 5823 5824
5848 5845 5842 5837 5830 5828 5825 5823 5823 5821 5821 5824 5825 5825 5826 5827 5827 5826 5821 5821 5821 5820 5822 5823 5823 5823 5825 5824 5823 5824 5826 5829 5833 5833 5834 5836 5836 5834 5832 5829 5822 5818 5816
5853 5849 5844 5838 5831 5829 5828 5825 5824 5823 5824 5824 5826 5829 5829 5828 5829 5827 5825 5825 5822 5822 5825 5826 5826 5826 5826 5827 5826 5826 5824 5829 5832 5835 5837 5838 5838 5837 5835 5829 5827 5817 5815
5852 5848 5843 5841 5836 5833 5828 5826 5824 5823 5823 5823 5826 5829 5831 5831 5833 5829 5826 5827 5826 5825 5827 5829 5833 5831 5830 5831 5831 5833 5833 5835 5835 5835 5836 5837 5839 5840 5838 5835 5832 5825 5817
5850 5846 5845 5842 5838 5835 5829 5828 5826 5823 5822 5823 5824 5827 5833 5834 5833 5830 5828 5829 5830 5828 5829 5834 5836 5837 5837 5837 5836 5837 5836 5834 5834 5831 5831 5832 5834 5836 5838 5837 5834 5830 5825
5846 5844 5844 5842 5837 5836 5830 5827 5825 5825 5824 5822 5824 5825 5832 5837 5838 5834 5832 5829 5828 5831 5834 5833 5831 5832 5832 5832 5834 5834 5831 5829 5828 5827 5829 5833 5836 5839 5838 5834 5832 5828 5823
5841 5841 5841 5838 5832 5831 5832 5830 5827 5827 5825 5826 5826 5827 5829 5833 5839 5841 5834 5829 5830 5831 5832 5833 5834 5831 5829 5830 5833 5830 5830 5833 5831 5831 5832 5836 5837 5835 5831 5831 5824 5820 5813
5837 5835 5835 5836 5831 5829 5830 5830 5830 5833 5833 5829 5833 5831 5828 5830 5840 5846 5844 5840 5837 5836 5832 5829 5827 5827 5827 5829 5832 5835 5834 5833 5831 5832 5831 5831 5830 5828 5826 5825 5819 5811 5806
5821 5825 5829 5829 5829 5828 5825 5824 5822 5830 5830 5832 5833 5836 5826 5832 5834 5837 5841 5843 5842 5834 5826 5825 5826 5827 5828 5830 5830 5832 5834 5830 5830 5831 5830 5828 5824 5820 5815 5813 5809 5804 5801
5793 5801 5817 5819 5825 5825 5822 5823 5819 5815 5814 5819 5825 5823 5828 5821 5822 5824 5829 5833 5832 5827 5829 5827 5828 5831 5833 5834 5835 5833 5826 5825 5822 5822 5822 5820 5816 5812 5806 5804 5801 5799 5797
5775 5782 5793 5803 5818 5822 5822 5822 5823 5815 5812 5813 5811 5812 5811 5815 5817 5816 5816 5821 5820 5822 5828 5830 5830 5832 5832 5832 5830 5828 5827 5824 5820 5818 5816 5813 5807 5802 5799 5795 5794 5793 5793
5758 5766 5775 5786 5795 5812 5823 5820 5820 5819 5815 5813 5811 5796 5795 5798 5800 5801 5805 5818 5818 5822 5824 5823 5825 5826 5829 5830 5830 5827 5823 5818 5818 5813 5809 5804 5800 5797 5793 5790 5789 5786 5786
5741 5752 5759 5768 5779 5783 5790 5805 5805 5800 5793 5798 5799 5802 5795 5792 5795 5795 5795 5798 5804 5809 5817 5823 5826 5823 5824 5824 5824 5820 5813 5810 5809 5805 5800 5795 5789 5787 5786 5787 5788 5786 5784
5721 5736 5743 5750 5759 5764 5771 5781 5783 5779 5776 5775 5790 5796 5791 5788 5787 5789 5788 5787 5789 5797 5793 5800 5810 5810 5814 5821 5815 5809 5804 5800 5799 5798 5795 5790 5783 5782 5784 5785 5785 5783 5783
5705 5718 5731 5731 5737 5744 5749 5752 5754 5752 5748 5748 5762 5772 5763 5767 5765 5757 5772 5779 5771 5745 5755 5776 5796 5780 5789 5790 5796 5797 5798 5793 5789 5787 5784 5784 5777 5776 5777 5777 5777 5775 5775
5688 5698 5707 5713 5718 5721 5727 5732 5728 5728 5730 5745 5729 5743 5736 5741 5741 5736 5740 5744 5752 5739 5737 5754 5748 5751 5763 5758 5761 5763 5761 5755 5754 5758 5765 5771 5768 5767 5770 5770 5768 5766 5764
5660 5666 5672 5681 5685 5692 5694 5694 5696 5695 5697 5697 5700 5704 5706 5697 5714 5715 5704 5716 5721 5711 5709 5709 5722 5730 5730 5729 5729 5732 5735 5735 5735 5737 5742 5748 5755 5759 5760 5760 5758 5757 5752
5625 5633 5639 5642 5655 5656 5658 5661 5679 5653 5656 5653 5659 5665 5678 5678 5692 5673 5682 5685 5690 5694 5695 5698 5705 5704 5708 5705 5702 5706 5712 5718 5719 5722 5726 5731 5734 5738 5742 5740 5742 5739 5737
5607 5612 5617 5623 5630 5623 5624 5624 5624 5623 5632 5635 5643 5650 5663 5662 5661 5656 5667 5673 5674 5676 5675 5673 5678 5682 5679 5674 5673 5679 5685 5693 5700 5704 5708 5713 5714 5712 5714 5716 5719 5721 5720